Flag for Germany Weather past 2 weeks in Lage, North Rhine-Westphalia, Germany

Now
39 °F

Light rain. Low clouds.


Feels Like: 33 °F
Forecast: 35 / 46 °F
Wind: 9 mph from Southwest

Location: Bad Lippspringe

Current Time: Apr 2, 2015 at 5:40:20 AM

Latest Report: Apr 2, 2015 at 5:00 AM


Visibility: 9 mi

Pressure: 29.78 "Hg

Humidity: 95%

Dew point: 38 °F

Location of LageLocation

Historic Weather in Lage — Graph

°F

Lage temperature yesterday

Maximum temperature yesterday: 43 °F (at 1:00 PM)
Minimum temperature yesterday: 35 °F (at 6:00 AM)
Average temperature yesterday: 37 °F

Past Weeks' High & Low Weather Summary

 TemperatureHumidityPressure
High63 °F (Mar 25, 3:00 PM)100% (Mar 19, 8:00 AM)30.38 "Hg (Mar 19, 8:00 AM)
Low27 °F (Mar 23, 5:00 AM)43% (Mar 25, 3:00 PM)29.15 "Hg (Mar 31, 7:00 AM)
Average42 °F81%29.93 "Hg
* Reported Mar 18 3:00 AM — Apr 2 4:00 AM, Lage, Weather by CustomWeather, © 2015

Note: Actual official high and low records may vary slightly from our data, if they occured in-between our weather recording intervals... More about our weather records

Advertising

Lage weather history for previous 24 hours

 ConditionsComfort  
Time TempWeatherWind HumidityBarometerVisibility
4:00 AM
Thu, Apr 2
40 °FLight freezing rain. Overcast.8 mph92%29.82 "Hg19 mi
3:00 AM38 °FRain. Low clouds.5 mph95%29.86 "Hg16 mi
2:00 AM37 °FLight rain. Low clouds.6 mph96%29.89 "Hg12 mi
1:00 AM37 °FDrizzle. Low clouds.7 mph95%29.93 "Hg17 mi
12:00 AM36 °FRain. Low clouds.3 mph94%29.96 "Hg5 mi
11:00 PM
Wed, Apr 1
36 °FLight rain. Overcast.5 mph92%29.99 "Hg19 mi
10:00 PM35 °FLight rain. Low clouds.8 mph94%30.03 "Hg11 mi
9:00 PM35 °FOvercast.2 mph91%30.03 "Hg25 mi
8:00 PM36 °FHeavy snow. Overcast.6 mph88%30.02 "Hg5 mi
7:00 PM38 °FOvercast.6 mph84%30.01 "Hg22 mi
6:00 PM39 °FPartly sunny.8 mph81%29.99 "Hg25 mi
5:00 PM39 °FOvercast.8 mph85%29.97 "Hg31 mi
4:00 PM37 °FLight rain. Low clouds.7 mph90%29.98 "Hg13 mi
3:00 PM36 °FFreezing rain. Overcast.6 mph89%29.99 "Hg5 mi
2:00 PM41 °FOvercast.8 mph73%29.97 "Hg19 mi
1:00 PM43 °FOvercast.12 mph70%29.95 "Hg14 mi
12:00 PM41 °FOvercast.8 mph76%29.95 "Hg17 mi
11:00 AM38 °FOvercast.7 mph88%29.95 "Hg14 mi
10:00 AM36 °FLow clouds.7 mph92%29.92 "Hg19 mi
9:00 AM35 °FLight freezing rain. Low clouds.8 mph95%29.90 "Hg3 mi
8:00 AM35 °FOvercast.7 mph92%29.86 "Hg14 mi
7:00 AM35 °FOvercast.8 mph90%29.84 "HgN/A
6:00 AM35 °FDrizzle. Low clouds.9 mph92%29.80 "Hg22 mi
5:00 AM36 °FOvercast.5 mph89%29.78 "Hg43 mi
Weather by CustomWeather, © 2015

See weather overviewHow to use our weather pages